Denver Centennial, CO

11:39 PM MDT on May 29, 2017 (GMT -0600)
Centennial

Weather History for KAPA - August, 2013

Change the Weather History Date:

Thursday, August 29, 2013

  Actual Average Record
Temperature  
Mean Temperature 77 °F -  
Max Temperature 93 °F 80 °F 93 °F (2013)
Min Temperature 60 °F 53 °F 46 °F (2006)
Cooling Degree Days 12    
Month to date cooling degree days 220  
Growing Degree Days 26 (Base 50)    
Moisture  
Dew Point 46 °F    
Average Humidity 42    
Maximum Humidity 67    
Minimum Humidity 16    
Precipitation  
Precipitation 0.00 in - - ()
Month to date precipitation 3.24  
Year to date precipitation 9.81  
Sea Level Pressure  
Sea Level Pressure 30.00 in    
Wind  
Wind Speed 5 mph (WSW)    
Max Wind Speed 16 mph    
Max Gust Speed 21 mph    
Visibility 10 miles    
Events      
Averages and records for this station are not official NWS values.
T = Trace of Precipitation, MM = Missing Value Source: NWS Daily Summary

Daily Weather History Graph

Daily Weather History Graph

Search for Another Location

Airport or City:

Trip Planner

Search our weather history database for the weather conditions in past years. The results will help you decide how hot, cold, wet, or windy it might be!

Date:

Astronomy

Aug. 29, 2013 Rise Set
Actual Time 6:25 AM MDT 7:34 PM MDT
Civil Twilight 5:57 AM MDT 8:02 PM MDT
Nautical Twilight 5:24 AM MDT 8:35 PM MDT
Astronomical Twilight 4:49 AM MDT 9:09 PM MDT
Moon 12:19 AM MDT (8/29) 3:04 PM MDT (8/29)
Length of Visible Light 14h 04m
Length of Day
13h 09m
Last Quarter, 37% of the Moon is Illuminated
Aug 29
Last Quarter
Sep 5
New
Sep 12
First Quarter
Sep 19
Full
Sep 26
Last Quarter

Hourly Weather History & Observations

Time (MDT) Temp. Dew Point Humidity Pressure Visibility Wind Dir Wind Speed Gust Speed Precip Events Conditions
12:53 AM 66.9 °F 51.1 °F 57% 29.98 in 10.0 mi SSW 3.5 mph - N/A   Partly Cloudy
1:53 AM 63.0 °F 52.0 °F 67% 29.99 in 10.0 mi SW 5.8 mph - N/A   Clear
2:53 AM 66.0 °F 48.0 °F 52% 29.97 in 10.0 mi WSW 9.2 mph - N/A   Clear
3:53 AM 63.0 °F 48.0 °F 58% 29.98 in 10.0 mi Calm Calm - N/A   Clear
4:53 AM 63.0 °F 48.0 °F 58% 29.98 in 10.0 mi SSW 3.5 mph - N/A   Clear
5:53 AM 60.1 °F 46.9 °F 62% 30.00 in 10.0 mi SE 3.5 mph - N/A   Clear
6:53 AM 66.0 °F 46.9 °F 50% 30.00 in 10.0 mi Calm Calm - N/A   Partly Cloudy
7:53 AM 72.0 °F 50.0 °F 46% 30.01 in 10.0 mi SW 5.8 mph - N/A   Partly Cloudy
8:53 AM 75.9 °F 46.9 °F 36% 30.01 in 10.0 mi WSW 9.2 mph - N/A   Partly Cloudy
9:53 AM 80.1 °F 50.0 °F 35% 30.02 in 10.0 mi WSW 3.5 mph - N/A   Scattered Clouds
10:53 AM 84.0 °F 45.0 °F 25% 30.02 in 10.0 mi Calm Calm - N/A   Scattered Clouds
11:53 AM 87.1 °F 43.0 °F 21% 30.00 in 10.0 mi NE 5.8 mph - N/A   Scattered Clouds
12:53 PM 90.0 °F 42.1 °F 19% 29.99 in 10.0 mi Variable 4.6 mph - N/A   Scattered Clouds
1:53 PM 91.0 °F 42.1 °F 18% 29.99 in 10.0 mi NE 9.2 mph - N/A   Scattered Clouds
2:53 PM 91.0 °F 41.0 °F 17% 29.97 in 10.0 mi Variable 5.8 mph - N/A   Scattered Clouds
3:53 PM 91.9 °F 39.9 °F 16% 29.96 in 10.0 mi North 5.8 mph - N/A   Scattered Clouds
4:53 PM 89.1 °F 41.0 °F 19% 29.98 in 10.0 mi North 5.8 mph - N/A   Mostly Cloudy
5:53 PM 84.9 °F 46.0 °F 26% 30.01 in 10.0 mi NW 12.7 mph - N/A   Mostly Cloudy
6:53 PM 80.1 °F 46.0 °F 30% 30.03 in 10.0 mi WNW 10.4 mph - N/A   Mostly Cloudy
7:53 PM 77.0 °F 46.0 °F 33% 30.04 in 10.0 mi West 9.2 mph - N/A   Mostly Cloudy
8:53 PM 75.9 °F 46.9 °F 36% 30.05 in 10.0 mi WSW 5.8 mph - N/A   Mostly Cloudy
9:53 PM 73.9 °F 48.0 °F 40% 30.05 in 10.0 mi WSW 6.9 mph - N/A   Mostly Cloudy
10:53 PM 75.0 °F 46.9 °F 37% 30.02 in 10.0 mi WSW 8.1 mph - N/A   Mostly Cloudy
11:53 PM 75.0 °F 46.9 °F 37% 30.02 in 10.0 mi WSW 3.5 mph - N/A   Mostly Cloudy